Simultaneous Nadir Overpasses (SNOs) Predictions

Prediction of SNOs between LANDSAT-8 and NOAA-19 Satellite Orbit:

Table of predicted SNOs for the next 14.0 days since TLE Epoch: 8/22/2014
Index Date (LANDSAT-8) Time (LANDSAT-8) Lat,Lon (LANDSAT-8) SZA (LANDSAT-8 ) Date (NOAA-19) Time (NOAA-19) Lat,Lon (NOAA-19) SZA (NOAA-19 ) Distance(km) Time Diff (sec)
1 08/22/2014 17:15:52 -72.19, 100.67 119.55 08/22/2014 17:15:29 -72.16, 100.63 119.57 2.92 23
2 08/22/2014 18:05:20 72.04, -91.95 60.32 08/22/2014 18:06:26 72.03, -91.85 60.31 3.35 66
3 08/24/2014 22:00:09 -72.22, 29.65 118.77 08/24/2014 21:59:17 -72.21, 29.63 118.78 1.43 52
4 08/24/2014 22:49:36 72.12,-162.87 61.15 08/24/2014 22:50:15 72.10,-162.92 61.13 2.64 39
5 08/27/2014 02:44:22 -72.45, -40.99 117.78 08/27/2014 02:43:10 -72.51, -41.91 117.71 31.51 72
6 08/27/2014 03:33:53 72.14, 126.09 61.93 08/27/2014 03:34:03 72.13, 126.11 61.92 1.31 10
7 08/29/2014 08:18:10 72.15, 55.04 62.72 08/29/2014 08:17:51 72.17, 55.11 62.73 2.88 19
8 08/29/2014 09:07:39 -72.09,-137.43 117.33 08/29/2014 09:08:52 -72.09,-137.50 117.33 2.41 73
9 08/31/2014 13:02:26 72.21, -15.93 63.56 08/31/2014 13:01:39 72.21, -15.90 63.57 1.10 47
10 08/31/2014 13:51:56 -72.10, 151.51 116.54 08/31/2014 13:52:39 -72.11, 151.54 116.53 2.18 43
11 09/02/2014 17:46:41 72.31, -86.81 64.46 09/02/2014 17:45:28 72.31, -87.02 64.47 7.03 73
12 09/02/2014 18:36:12 -72.14, 80.52 115.70 09/02/2014 18:36:26 -72.14, 80.57 115.70 1.58 14
13 09/04/2014 23:20:28 -72.18, 9.52 114.85 09/04/2014 23:20:13 -72.18, 9.58 114.85 1.88 15




NCC Satellite Simultaneous Nadir Overpasses (SNOs) Prediction Service
